When you browse on this site, cookies collect data to enhance your experience and personalize the content and advertising you see.
Visit our Privacy Policy to learn more. By continuing to use the site, you agree to this use of cookies and data.
  • In Portugal
  • List of Countries
  • For 7 days
  • Water Temperature
  • Satellite Maps
  • Weather Map
  • Weather Widgets
  • user-avatar
    Login

    Hourly Weather San Luis

    Today, 24 May, Friday

    Time Temperature Precipitation Wind Pressure Humidity
    00:00 +8°C° 0 mm 4 mps 700 mmHg 30%
    01:00 +8°C° 0 mm 4 mps 700 mmHg 28%
    02:00 +8°C° 0 mm 4 mps 700 mmHg 27%
    03:00 +8°C° 0 mm 4 mps 699 mmHg 26%
    04:00 +8°C° 0 mm 4 mps 699 mmHg 26%
    05:00 +8°C° 0 mm 4 mps 699 mmHg 25%
    06:00 +10°C° 0 mm 4 mps 699 mmHg 25%
    07:00 +10°C° 0 mm 4 mps 699 mmHg 24%
    08:00 +10°C° 0 mm 4 mps 699 mmHg 24%
    09:00 +13°C° 0 mm 4 mps 699 mmHg 20%
    10:00 +17°C° 0 mm 4 mps 699 mmHg 17%
    11:00 +20°C° 0 mm 4 mps 700 mmHg 13%
    12:00 +21°C° 0 mm 4 mps 699 mmHg 13%
    13:00 +22°C° 0 mm 4 mps 699 mmHg 12%
    14:00 +23°C° 0 mm 4 mps 698 mmHg 11%
    15:00 +21°C° 0 mm 3 mps 697 mmHg 15%
    16:00 +19°C° 0 mm 3 mps 697 mmHg 18%
    17:00 +18°C° 0 mm 2 mps 696 mmHg 22%
    18:00 +17°C° 0 mm 2 mps 696 mmHg 22%
    19:00 +15°C° 0 mm 2 mps 696 mmHg 22%
    20:00 +13°C° 0 mm 3 mps 696 mmHg 22%
    21:00 +13°C° 0 mm 3 mps 696 mmHg 22%
    22:00 +13°C° 0 mm 4 mps 696 mmHg 21%
    23:00 +13°C° 0 mm 4 mps 696 mmHg 20%

    Tomorrow, 25 May, Saturday

    Time Temperature Precipitation Wind Pressure Humidity
    00:00 +13°C° 0 mm 5 mps 696 mmHg 21%
    01:00 +13°C° 0 mm 5 mps 696 mmHg 21%
    02:00 +12°C° 0 mm 5 mps 695 mmHg 22%
    03:00 +12°C° 0 mm 5 mps 695 mmHg 23%
    04:00 +13°C° 0 mm 5 mps 695 mmHg 25%
    05:00 +13°C° 0 mm 6 mps 694 mmHg 26%
    06:00 +13°C° 0 mm 5 mps 695 mmHg 29%
    07:00 +13°C° 0 mm 5 mps 695 mmHg 33%
    08:00 +13°C° 0 mm 4 mps 695 mmHg 36%
    09:00 +15°C° 0 mm 4 mps 695 mmHg 33%
    10:00 +17°C° 0 mm 5 mps 695 mmHg 30%
    11:00 +20°C° 0 mm 5 mps 695 mmHg 27%
    12:00 +20°C° 0 mm 5 mps 695 mmHg 26%
    13:00 +21°C° 0 mm 5 mps 694 mmHg 24%
    14:00 +22°C° 0 mm 5 mps 694 mmHg 23%
    15:00 +21°C° 0 mm 4 mps 693 mmHg 26%
    16:00 +19°C° 0 mm 3 mps 693 mmHg 30%
    17:00 +18°C° 0 mm 3 mps 693 mmHg 33%
    18:00 +17°C° 0 mm 2 mps 693 mmHg 37%
    19:00 +15°C° 0 mm 2 mps 693 mmHg 40%
    20:00 +14°C° 0 mm 2 mps 693 mmHg 44%
    21:00 +13°C° 0 mm 2 mps 693 mmHg 45%
    22:00 +13°C° 0 mm 2 mps 694 mmHg 46%
    23:00 +13°C° 0 mm 2 mps 694 mmHg 48%

    Day after tomorrow, 26 May, Sunday

    Time Temperature Precipitation Wind Pressure Humidity
    00:00 +13°C° 0 mm 2 mps 694 mmHg 50%
    01:00 +13°C° 0 mm 2 mps 694 mmHg 53%
    02:00 +12°C° 0 mm 2 mps 694 mmHg 55%
    03:00 +12°C° 0 mm 2 mps 694 mmHg 58%
    04:00 +11°C° 0 mm 1 mps 694 mmHg 61%
    05:00 +10°C° 0 mm 1 mps 694 mmHg 64%
    06:00 +11°C° 0 mm 1 mps 694 mmHg 63%
    07:00 +11°C° 0 mm 1 mps 695 mmHg 62%
    08:00 +11°C° 0 mm 1 mps 696 mmHg 61%
    09:00 +13°C° 0 mm 1 mps 697 mmHg 53%
    10:00 +16°C° 0 mm 2 mps 697 mmHg 46%
    11:00 +18°C° 0 mm 2 mps 698 mmHg 38%
    12:00 +19°C° 0 mm 2 mps 698 mmHg 35%
    13:00 +19°C° 0 mm 3 mps 698 mmHg 31%
    14:00 +20°C° 0 mm 4 mps 697 mmHg 28%
    15:00 +19°C° 0 mm 4 mps 697 mmHg 29%
    16:00 +17°C° 0 mm 5 mps 697 mmHg 30%
    17:00 +16°C° 0 mm 5 mps 697 mmHg 31%
    18:00 +15°C° 0 mm 5 mps 697 mmHg 34%
    19:00 +13°C° 0 mm 5 mps 697 mmHg 36%
    20:00 +12°C° 0 mm 4 mps 697 mmHg 39%
    21:00 +11°C° 0 mm 4 mps 697 mmHg 41%
    22:00 +11°C° 0 mm 4 mps 698 mmHg 42%
    23:00 +11°C° 0 mm 4 mps 698 mmHg 43%

    27 May, Monday

    Time Temperature Precipitation Wind Pressure Humidity
    00:00 +11°C° 0 mm 4 mps 698 mmHg 43%
    01:00 +10°C° 0 mm 3 mps 697 mmHg 44%
    02:00 +10°C° 0 mm 3 mps 697 mmHg 44%
    03:00 +10°C° 0 mm 3 mps 697 mmHg 46%
    04:00 +9°C° 0 mm 2 mps 697 mmHg 47%
    05:00 +9°C° 0 mm 2 mps 696 mmHg 49%
    06:00 +9°C° 0 mm 2 mps 697 mmHg 48%
    07:00 +10°C° 0 mm 2 mps 697 mmHg 47%
    08:00 +10°C° 0 mm 3 mps 697 mmHg 46%
    09:00 +12°C° 0 mm 3 mps 698 mmHg 41%
    10:00 +16°C° 0 mm 3 mps 698 mmHg 36%
    11:00 +18°C° 0 mm 3 mps 698 mmHg 31%
    12:00 +18°C° 0 mm 3 mps 698 mmHg 30%
    13:00 +19°C° 0 mm 3 mps 697 mmHg 28%
    14:00 +19°C° 0 mm 3 mps 697 mmHg 27%
    15:00 +18°C° 0 mm 3 mps 696 mmHg 30%
    16:00 +17°C° 0 mm 3 mps 696 mmHg 33%
    17:00 +16°C° 0 mm 2 mps 696 mmHg 35%
    18:00 +14°C° 0 mm 2 mps 696 mmHg 40%
    19:00 +13°C° 0 mm 1 mps 696 mmHg 45%
    20:00 +11°C° 0 mm 1 mps 696 mmHg 49%
    21:00 +11°C° 0 mm 1 mps 696 mmHg 53%
    22:00 +10°C° 0 mm 1 mps 696 mmHg 57%
    23:00 +10°C° 0 mm 1 mps 696 mmHg 61%

    28 May, Tuesday

    Time Temperature Precipitation Wind Pressure Humidity
    00:00 +9°C° 0 mm 1 mps 696 mmHg 63%
    01:00 +9°C° 0 mm 1 mps 696 mmHg 65%
    02:00 +8°C° 0 mm 1 mps 696 mmHg 66%
    03:00 +8°C° 0 mm 1 mps 696 mmHg 65%
    04:00 +8°C° 0 mm 1 mps 696 mmHg 63%
    05:00 +7°C° 0 mm 1 mps 696 mmHg 61%
    06:00 +8°C° 0 mm 1 mps 696 mmHg 56%
    07:00 +8°C° 0 mm 1 mps 697 mmHg 50%
    08:00 +9°C° 0 mm 1 mps 697 mmHg 45%
    09:00 +12°C° 0 mm 1 mps 698 mmHg 39%
    10:00 +14°C° 0 mm 1 mps 699 mmHg 33%
    11:00 +18°C° 0 mm 1 mps 699 mmHg 28%
    12:00 +19°C° 0 mm 1 mps 699 mmHg 28%
    13:00 +19°C° 0 mm 1 mps 698 mmHg 28%
    14:00 +20°C° 0 mm 1 mps 698 mmHg 29%
    15:00 +19°C° 0 mm 1 mps 698 mmHg 33%
    16:00 +17°C° 0 mm 2 mps 697 mmHg 37%
    17:00 +16°C° 0 mm 2 mps 697 mmHg 42%
    18:00 +15°C° 0 mm 2 mps 697 mmHg 48%
    19:00 +13°C° 0 mm 3 mps 697 mmHg 55%
    20:00 +11°C° 0 mm 3 mps 697 mmHg 62%
    21:00 +12°C° 0 mm 3 mps 697 mmHg 61%
    22:00 +12°C° 0 mm 3 mps 697 mmHg 60%
    23:00 +12°C° 0 mm 3 mps 697 mmHg 60%

    29 May, Wednesday

    Time Temperature Precipitation Wind Pressure Humidity
    00:00 +12°C° 0 mm 3 mps 696 mmHg 66%
    01:00 +12°C° 0 mm 3 mps 696 mmHg 72%
    02:00 +12°C° 0 mm 4 mps 696 mmHg 78%
    03:00 +12°C° 0 mm 4 mps 696 mmHg 78%
    04:00 +12°C° 0 mm 4 mps 695 mmHg 78%
    05:00 +12°C° 0 mm 4 mps 695 mmHg 78%
    06:00 +12°C° 0 mm 4 mps 695 mmHg 78%
    07:00 +12°C° 0 mm 4 mps 695 mmHg 78%
    08:00 +12°C° 0 mm 3 mps 695 mmHg 78%
    09:00 +13°C° 0 mm 4 mps 695 mmHg 74%
    10:00 +15°C° 0 mm 6 mps 695 mmHg 69%
    11:00 +16°C° 0 mm 7 mps 695 mmHg 64%
    12:00 +17°C° 0.1 mm 7 mps 695 mmHg 61%
    13:00 +17°C° 0.1 mm 7 mps 695 mmHg 58%
    14:00 +18°C° 0.1 mm 7 mps 694 mmHg 56%
    15:00 +17°C° 0.1 mm 6 mps 694 mmHg 59%
    16:00 +16°C° 0.1 mm 5 mps 694 mmHg 63%
    17:00 +17°C° 0.1 mm 4 mps 694 mmHg 67%
    18:00 +14°C° 0 mm 3 mps 694 mmHg 74%
    19:00 +13°C° 0 mm 2 mps 694 mmHg 82%
    20:00 +12°C° 0 mm 1 mps 694 mmHg 89%
    21:00 +11°C° 0 mm 1 mps 694 mmHg 89%
    22:00 +11°C° 0 mm 1 mps 694 mmHg 90%
    23:00 +11°C° 0 mm 1 mps 694 mmHg 90%
    Show more